Regional Weather Roundup
Issued by NWS

Home | Current Version | Previous Version | Text Only | Print | Product List | Glossary Off
Versions: 1 2 3 4 5 6 7 8 9 10 11 12 13 14 15 16 17 18 19 20 21 22 23 24 25 26 27 28 29 30 31 32 33 34 35 36 37 38 39 40 41 42 43 44 45 46 47 48 49 50

670
ASUS43 KLMK 010110
RWRKY
KENTUCKY REGIONAL WEATHER ROUNDUP
NATIONAL WEATHER SERVICE LOUISVILLE KY
900 PM EDT TUE MAY 31 2016

NOTE "FAIR" INDICATES FEW OR NO CLOUDS BELOW 12,000 FEET
WITH NO SIGNIFICANT WEATHER AND/OR OBSTRUCTIONS TO VISIBILITY.

KYZ001>023-026-027-061>063-070>075-010200-
WESTERN AND SOUTH CENTRAL KENTUCKY

CITY           SKY/WX    TMP DP  RH WIND       PRES   REMARKS
PADUCAH        CLEAR     78  63  59 SE3       29.89R
HENDERSON      PTCLDY    81  61  50 SE6       29.89R
OWENSBORO      PTCLDY    81  62  52 E6        29.92R
HOPKINSVILLE   CLEAR     82  62  51 CALM      29.90R
BOWLING GREEN  CLEAR     79  65  62 CALM      29.92R
GLASGOW        CLEAR     77  63  60 E3        29.93S
$$

KYZ024-025-028>034-038-045-046-053-010200-
NORTH CENTRAL KENTUCKY

CITY           SKY/WX    TMP DP  RH WIND       PRES   REMARKS
LOUISVILLE/SDF PTCLDY    82  56  40 E5        29.92S
LOUISVILLE/LOU CLEAR     82  59  45 CALM      29.93S
FORT KNOX      CLEAR     78  60  53 NE2       29.92S
$$

KYZ035>037-039>044-047>052-055>060-089>105-010200-
NORTHEAST KENTUCKY

CITY           SKY/WX    TMP DP  RH WIND       PRES   REMARKS
LEXINGTON      PTCLDY    76  60  57 NE8       29.96S
COVINGTON      PTCLDY    77  61  57 S5        29.96S
FRANKFORT      PTCLDY    78  57  48 E5        29.94S
$$

KYZ054-064>069-076>088-106>120-010200-
SOUTHEAST KENTUCKY

CITY           SKY/WX    TMP DP  RH WIND       PRES   REMARKS
JACKSON        CLEAR     75  58  55 CALM      29.98S
LONDON         PTCLDY    75  61  61 NE5       29.96S
SOMERSET       PTCLDY    73  63  68 CALM      29.96S
MIDDLESBORO    CLEAR     74  65  75 W3        29.97R
MONTICELLO     CLEAR     73  67  81 N12       29.97R
$$





USA.gov is the U.S. government's official web portal to all federal, state and local government web resources and services.